カタログに戻る

GONETS M 07

運用中通信PO
NORAD 39251·PAYLOAD·🇷🇺 Russia

打ち上げ Sep 11, 2013 から Plesetsk Cosmodrome

Loading…

次のパス (今後24時間)

TLE

最新Source: Space-Track

元期: Sep 14, 2026, 14:07 UTC

1 39251U 13048C   26257.58856438  .00000105  00000-0  68742-3 0  9991
2 39251  82.4857 290.6229 0017684  23.6924 336.4967 12.42917702589946

AllMySatでGONETS M 07をリアルタイム追跡

Download on the App Store